Dewpoint
50 51 53 52 50 51 51 51 51 50 50 50 50 51 50 52 53 50 47 49 53 56 56 50 53 53 55 55 56 51 44 40 39 38 37 37 34 33 36 40 40 44 50 53 61
49 52 51 51 52 52 52 51 51 50 49 49 49 48 50 51 49 45 49 53 53 56 50 50 50 52 52 53 52 49 44 40 41 40 39 40 37 33 36 38 43 46 53 60 60
50 52 51 49 50 49 49 48 48 49 48 48 48 49 49 48 41 39 53 52 53 53 51 52 51 51 49 50 50 49 43 43 43 42 40 39 36 38 35 37 41 46 55 59 59
51 51 49 49 49 48 47 47 47 47 47 47 48 48 48 44 30 35 54 53 51 44 52 51 51 48 46 46 48 47 46 43 43 45 43 40 42 40 35 35 36 47 56 56 58
50 50 49 49 48 48 47 46 46 47 47 47 47 46 45 37 35 39 48 46 41 42 49 48 47 45 42 43 46 47 46 45 45 44 45 44 42 40 38 39 52 55 56 56 57
48 48 49 48 47 46 46 47 47 47 47 48 47 47 41 35 38 38 39 39 39 39 41 48 48 46 46 42 43 46 46 45 46 44 46 43 41 38 37 51 54 55 55 55 56
48 47 47 48 47 46 47 47 47 47 48 48 47 44 40 35 38 38 38 37 37 35 34 41 45 47 46 45 45 45 44 45 46 46 45 47 41 39 39 51 53 53 54 54 54
47 48 47 47 47 47 47 47 47 47 47 47 48 44 38 39 39 38 39 38 39 40 39 39 43 43 46 46 44 43 43 39 42 46 47 46 39 39 44 50 51 52 52 54 55
48 48 47 47 48 48 48 47 47 46 45 44 42 41 34 38 39 39 39 38 37 37 38 38 43 46 45 42 39 41 34 36 38 44 42 42 38 40 41 47 49 50 51 53 52
46 47 48 48 48 48 47 46 46 42 38 39 41 36 33 32 36 38 38 40 38 38 35 36 41 41 40 38 31 32 34 35 37 39 41 41 38 38 38 45 47 48 48 50 49
48 48 48 48 48 47 44 39 33 29 34 31 28 34 32 33 35 35 36 35 37 37 31 35 34 32 35 36 34 33 35 33 36 39 40 39 39 38 37 41 44 47 48 47 47
47 48 48 48 48 46 40 35 38 40 32 33 33 34 35 35 32 30 34 32 30 26 33 32 30 31 33 34 36 34 34 35 36 38 39 38 38 38 37 37 38 44 46 47 46
47 48 48 48 47 40 39 37 41 41 33 29 30 30 31 35 32 31 30 30 30 29 30 29 28 30 31 32 34 35 34 34 33 36 34 36 35 37 39 37 37 38 44 46 46
47 47 47 48 38 40 36 39 42 39 21 18 17 29 31 32 30 32 30 30 30 25 26 32 34 32 29 31 34 31 35 36 36 34 32 33 27 34 37 37 36 36 38 44 45
46 47 47 46 39 37 38 42 41 33 -7 10 18 31 22 25 27 32 34 35 29 29 31 25 30 30 34 31 32 32 35 37 36 34 30 24 28 27 31 33 36 37 35 41 44
47 46 47 42 40 40 42 39 30 9 -8 17 23 20 21 24 30 34 33 36 36 33 34 29 32 32 35 34 35 33 37 37 37 33 29 28 29 25 23 31 32 36 37 35 42
46 46 43 44 37 42 37 28 10 0 15 16 19 21 23 24 27 33 32 31 25 22 23 26 27 31 34 34 36 35 33 27 25 25 25 24 26 25 25 26 31 33 37 36 37
46 44 40 41 39 39 29 17 -2 10 14 20 22 24 23 26 26 29 31 26 31 31 25 23 14 28 34 32 33 34 33 26 21 22 23 24 27 25 26 26 24 29 35 37 35
45 38 38 37 40 34 24 6 7 16 22 23 24 22 21 24 26 29 29 27 29 33 25 24 22 30 31 33 36 32 30 33 25 22 21 26 23 21 22 22 26 26 23 28 35
36 33 35 37 37 29 18 14 17 19 24 26 21 23 21 22 23 25 27 33 32 33 34 30 24 29 32 35 35 35 35 29 28 20 19 18 17 19 18 19 19 20 23 24 26
31 26 32 35 33 25 12 12 21 24 26 26 23 25 23 23 24 25 27 29 34 34 34 32 28 29 31 30 31 33 31 31 29 24 18 15 16 20 14 13 13 14 15 16 22
28 18 29 31 21 11 12 22 26 26 26 27 27 26 27 25 24 24 26 31 36 36 32 34 27 25 25 27 28 33 31 32 26 23 20 18 12 17 15 17 17 17 17 19 21
24 24 30 28 13 13 22 24 25 25 25 27 27 30 28 26 21 24 27 31 33 35 33 34 27 21 23 25 29 27 28 25 26 25 20 16 13 16 17 18 20 22 24 28 29
23 18 24 23 28 21 23 21 22 25 26 27 29 28 24 24 25 23 25 29 29 35 39 36 29 25 14 14 21 17 22 24 24 18 19 18 14 17 15 17 18 21 28 30 32
23 17 27 20 16 22 25 22 23 21 24 26 26 23 25 19 20 21 25 24 28 35 35 32 23 26 24 21 24 22 20 23 22 20 19 19 14 18 16 16 18 23 29 30 29
21 21 27 25 23 13 20 12 21 20 23 21 24 22 23 24 27 22 23 23 26 30 32 32 26 24 22 22 22 25 26 28 26 21 21 19 19 20 16 18 18 23 29 29 29
30 30 30 19 18 17 12 15 20 20 21 24 24 22 23 26 26 26 29 28 27 28 30 28 23 18 16 21 19 18 25 26 25 22 21 19 20 18 17 17 18 19 27 29 30
Lifted_Index
13 12 11 10 10 9 8 7 7 7 7 7 7 7 6 6 5 5 4 3 2 1 1 1 0 -1 -1 -2 -1 -1 0 1 1 2 2 2 2 3 4 5 5 5 4 3 1
13 12 11 10 10 9 8 7 7 7 7 7 7 7 7 6 6 5 4 3 2 1 1 1 0 -0 -1 -2 -1 -0 0 1 1 1 1 1 1 2 4 5 5 5 4 2 1
12 11 11 11 10 9 8 8 8 8 8 8 7 7 7 6 6 4 2 2 2 1 1 0 0 -0 -1 -1 -1 -0 1 1 1 1 1 1 1 1 2 4 5 4 3 2 1
12 11 11 11 10 9 9 9 8 8 8 8 7 7 7 7 6 4 2 2 2 2 1 -0 -1 -0 -0 -0 -1 -0 0 0 0 -0 0 1 1 1 2 3 4 3 2 1 1
12 11 11 11 10 9 9 9 9 8 8 7 7 7 7 7 6 5 3 3 3 2 1 -0 -1 -1 -0 -0 -0 -0 -0 -0 -0 -0 -0 0 1 1 2 2 2 2 1 1 1
12 12 11 11 10 10 9 9 8 8 7 7 7 6 6 7 7 7 6 5 5 4 2 0 -0 -1 -1 -0 -0 -0 -1 -1 -1 -1 -0 0 1 1 1 1 1 1 1 1 1
12 12 11 11 10 9 9 8 8 7 7 6 6 6 7 7 8 8 8 8 7 5 3 2 1 -0 -1 -1 -1 -0 -0 -0 -1 -0 -0 0 1 1 1 1 0 -0 -0 -0 0
12 12 11 10 9 9 8 8 8 7 7 6 6 7 7 8 8 8 8 8 8 7 6 5 3 1 0 -0 -0 -0 -0 0 -0 -0 0 1 1 1 1 1 0 -0 -1 -1 -0
12 11 11 10 9 8 8 8 7 7 7 7 7 8 9 9 9 8 8 8 8 8 7 6 3 2 1 1 0 0 1 1 1 0 1 1 2 1 1 1 0 -0 -1 -1 -1
11 11 10 9 8 7 8 8 8 8 8 8 8 9 9 10 9 9 8 8 8 7 6 5 3 2 1 1 1 1 1 1 1 1 1 1 2 1 1 0 0 -0 -1 -1 -0
11 10 9 8 7 8 8 9 9 9 9 9 9 9 9 9 9 9 9 8 8 8 6 5 3 2 2 2 2 2 1 1 1 1 1 1 1 1 1 1 0 0 -0 -0 -0
10 9 8 8 7 8 9 9 9 9 9 9 8 7 7 7 7 7 8 8 8 8 7 6 4 4 3 2 2 2 1 1 1 0 0 0 1 1 1 1 1 0 0 0 -0
10 9 8 7 8 8 9 8 8 9 9 8 7 5 4 4 4 5 5 6 7 7 7 6 6 5 4 3 2 2 1 1 1 0 0 0 1 1 1 1 1 1 1 0 0
9 9 8 8 8 9 8 8 8 8 8 7 5 3 2 2 2 2 3 3 4 5 6 6 5 4 4 3 3 2 2 1 1 1 0 1 1 2 1 1 1 1 1 1 1
9 8 8 8 8 8 8 8 8 7 6 5 4 2 2 1 1 1 1 2 2 3 4 5 5 4 4 3 3 2 2 1 1 1 1 1 1 2 2 2 2 2 2 2 2
8 8 8 8 8 8 8 8 8 6 5 4 3 2 1 1 1 1 1 1 1 2 2 3 4 4 4 3 3 2 2 1 1 1 1 1 2 2 3 3 3 3 2 2 2
8 8 8 8 8 8 8 8 7 6 5 4 2 1 1 1 1 1 1 1 1 1 1 2 3 3 3 3 3 2 2 1 0 0 0 1 1 2 3 3 3 3 3 3 3
9 9 9 8 8 8 8 8 6 5 4 3 2 1 1 1 2 1 1 1 1 1 1 1 2 3 3 2 2 2 2 1 0 0 0 1 1 2 3 3 3 3 3 3 3
9 9 9 9 8 8 8 7 6 5 4 3 2 1 1 2 2 1 1 1 1 1 1 1 1 2 2 2 2 2 1 1 1 0 0 1 1 2 3 3 3 3 4 4 3
10 9 9 9 8 8 7 7 6 5 3 2 2 1 2 2 2 1 1 1 1 1 1 1 1 1 2 2 2 2 1 1 1 1 0 1 1 2 3 3 3 3 4 4 4
10 9 9 9 8 8 7 7 5 4 3 2 2 2 2 2 2 1 1 1 1 1 1 1 1 1 2 2 2 2 2 1 1 1 0 1 2 2 3 3 3 4 4 4 5
9 9 9 8 8 8 7 7 5 4 2 2 1 2 2 2 2 1 1 1 1 1 1 1 1 1 1 2 2 2 1 1 1 1 1 1 2 3 4 3 3 4 4 5 5
9 9 8 8 8 7 7 6 5 4 2 2 1 2 2 2 2 2 2 1 1 1 1 1 1 1 1 2 2 1 1 1 1 1 1 1 2 3 4 4 4 4 4 4 5
9 9 9 8 8 8 7 6 5 4 3 2 2 2 2 2 2 2 2 2 1 1 1 1 1 1 1 1 1 1 1 1 1 1 1 2 2 3 4 4 4 5 5 5 4
9 9 9 9 8 8 8 7 5 4 3 3 2 2 2 2 2 2 2 2 2 1 1 1 1 1 1 1 1 1 1 0 0 0 1 1 2 3 3 4 4 5 5 5 5
9 9 9 9 9 9 8 7 6 4 4 3 3 2 2 2 2 2 2 2 2 1 1 1 1 1 1 1 1 0 0 0 0 0 1 1 2 3 3 3 4 5 5 5 5
9 9 9 9 9 9 8 7 6 5 4 3 3 3 2 2 2 2 3 2 2 1 1 1 1 1 1 1 1 0 0 0 1 1 1 1 2 2 3 3 4 4 5 5 6